• In Österreich
  • Länderverzeichnis
  • Für 7 Tage
  • Wassertemperatur
  • Satellitenkarten
  • Wetterkarte
  • News
  • Widgets
  • user-avatar
    Anmelden

    Stündliche Wetter Skvorcovo

    Heute, 22 September, Samstag

    Zeit Temperatur Niederschläge Wind Luftdruck Luftfeuchtigkeit
    00:00 +17°C° 0 mm 3 m/S 743 mmHg 84%
    01:00 +17°C° 0 mm 3 m/S 742 mmHg 82%
    02:00 +15°C° 0 mm 4 m/S 742 mmHg 80%
    03:00 +15°C° 0 mm 4 m/S 742 mmHg 79%
    04:00 +15°C° 0 mm 4 m/S 741 mmHg 78%
    05:00 +15°C° 0 mm 4 m/S 741 mmHg 77%
    06:00 +16°C° 0 mm 5 m/S 740 mmHg 73%
    07:00 +17°C° 0 mm 5 m/S 740 mmHg 69%
    08:00 +17°C° 0 mm 5 m/S 739 mmHg 65%
    09:00 +20°C° 0 mm 6 m/S 739 mmHg 60%
    10:00 +21°C° 0 mm 6 m/S 739 mmHg 54%
    11:00 +23°C° 0 mm 6 m/S 739 mmHg 49%
    12:00 +22°C° 0.2 mm 6 m/S 739 mmHg 55%
    13:00 +21°C° 0.2 mm 6 m/S 739 mmHg 61%
    14:00 +20°C° 0.2 mm 5 m/S 739 mmHg 67%
    15:00 +16°C° 0.3 mm 5 m/S 739 mmHg 74%
    16:00 +14°C° 0.3 mm 4 m/S 739 mmHg 82%
    17:00 +12°C° 0.3 mm 3 m/S 740 mmHg 89%
    18:00 +11°C° 0.5 mm 3 m/S 740 mmHg 90%
    19:00 +11°C° 0.5 mm 3 m/S 740 mmHg 92%
    20:00 +10°C° 0.5 mm 2 m/S 741 mmHg 93%
    21:00 +10°C° 0.5 mm 3 m/S 741 mmHg 93%
    22:00 +10°C° 0.5 mm 3 m/S 741 mmHg 92%
    23:00 +10°C° 0.5 mm 3 m/S 741 mmHg 92%

    Morgen, 23 September, Sonntag

    Zeit Temperatur Niederschläge Wind Luftdruck Luftfeuchtigkeit
    00:00 +10°C° 0.2 mm 3 m/S 741 mmHg 92%
    01:00 +10°C° 0.2 mm 3 m/S 741 mmHg 93%
    02:00 +9°C° 0.2 mm 2 m/S 740 mmHg 93%
    03:00 +9°C° 0 mm 2 m/S 740 mmHg 94%
    04:00 +8°C° 0 mm 2 m/S 740 mmHg 95%
    05:00 +8°C° 0 mm 2 m/S 739 mmHg 96%
    06:00 +8°C° 0 mm 3 m/S 739 mmHg 94%
    07:00 +9°C° 0 mm 3 m/S 739 mmHg 92%
    08:00 +9°C° 0 mm 3 m/S 739 mmHg 90%
    09:00 +10°C° 0 mm 4 m/S 739 mmHg 82%
    10:00 +12°C° 0 mm 4 m/S 739 mmHg 75%
    11:00 +13°C° 0 mm 5 m/S 738 mmHg 67%
    12:00 +13°C° 0.2 mm 5 m/S 738 mmHg 65%
    13:00 +14°C° 0.2 mm 5 m/S 738 mmHg 63%
    14:00 +14°C° 0.2 mm 5 m/S 738 mmHg 61%
    15:00 +13°C° 0.2 mm 4 m/S 738 mmHg 66%
    16:00 +12°C° 0.2 mm 3 m/S 738 mmHg 71%
    17:00 +11°C° 0.2 mm 3 m/S 738 mmHg 76%
    18:00 +10°C° 0.1 mm 3 m/S 738 mmHg 80%
    19:00 +9°C° 0.1 mm 3 m/S 738 mmHg 84%
    20:00 +8°C° 0.1 mm 3 m/S 738 mmHg 88%
    21:00 +8°C° 0 mm 3 m/S 738 mmHg 89%
    22:00 +8°C° 0 mm 3 m/S 738 mmHg 90%
    23:00 +8°C° 0 mm 3 m/S 738 mmHg 90%

    übermorgen, 24 September, Montag

    Zeit Temperatur Niederschläge Wind Luftdruck Luftfeuchtigkeit
    00:00 +7°C° 0 mm 3 m/S 738 mmHg 92%
    01:00 +7°C° 0 mm 3 m/S 738 mmHg 93%
    02:00 +5°C° 0 mm 3 m/S 738 mmHg 94%
    03:00 +6°C° 0 mm 2 m/S 737 mmHg 95%
    04:00 +6°C° 0 mm 2 m/S 737 mmHg 96%
    05:00 +5°C° 0 mm 2 m/S 737 mmHg 96%
    06:00 +6°C° 0 mm 2 m/S 737 mmHg 94%
    07:00 +7°C° 0 mm 2 m/S 737 mmHg 91%
    08:00 +8°C° 0 mm 2 m/S 737 mmHg 88%
    09:00 +9°C° 0 mm 2 m/S 736 mmHg 85%
    10:00 +10°C° 0 mm 2 m/S 736 mmHg 81%
    11:00 +12°C° 0 mm 1 m/S 735 mmHg 77%
    12:00 +10°C° 1.1 mm 2 m/S 734 mmHg 81%
    13:00 +10°C° 1.1 mm 3 m/S 734 mmHg 85%
    14:00 +9°C° 1.1 mm 3 m/S 733 mmHg 89%
    15:00 +8°C° 1.7 mm 4 m/S 732 mmHg 90%
    16:00 +7°C° 1.7 mm 4 m/S 731 mmHg 92%
    17:00 +7°C° 1.7 mm 4 m/S 730 mmHg 93%
    18:00 +7°C° 1.7 mm 5 m/S 729 mmHg 93%
    19:00 +7°C° 1.7 mm 6 m/S 729 mmHg 93%
    20:00 +5°C° 1.7 mm 6 m/S 728 mmHg 93%
    21:00 +5°C° 1.6 mm 7 m/S 728 mmHg 92%
    22:00 +5°C° 1.6 mm 7 m/S 728 mmHg 91%
    23:00 +5°C° 1.6 mm 8 m/S 728 mmHg 90%

    25 September, Dienstag

    Zeit Temperatur Niederschläge Wind Luftdruck Luftfeuchtigkeit
    00:00 +5°C° 1.1 mm 8 m/S 728 mmHg 89%
    01:00 +5°C° 1.1 mm 8 m/S 729 mmHg 88%
    02:00 +4°C° 1.1 mm 8 m/S 729 mmHg 87%
    03:00 +4°C° 0.4 mm 8 m/S 730 mmHg 86%
    04:00 +4°C° 0.4 mm 8 m/S 730 mmHg 86%
    05:00 +4°C° 0.4 mm 8 m/S 731 mmHg 85%
    06:00 +4°C° 0.1 mm 8 m/S 732 mmHg 84%
    07:00 +4°C° 0.1 mm 8 m/S 733 mmHg 83%
    08:00 +4°C° 0.1 mm 7 m/S 733 mmHg 82%
    09:00 +4°C° 0.1 mm 7 m/S 734 mmHg 78%
    10:00 +5°C° 0.1 mm 7 m/S 735 mmHg 74%
    11:00 +5°C° 0.1 mm 7 m/S 736 mmHg 69%
    12:00 +6°C° 0 mm 7 m/S 736 mmHg 65%
    13:00 +6°C° 0 mm 7 m/S 737 mmHg 60%
    14:00 +8°C° 0 mm 7 m/S 738 mmHg 55%
    15:00 +6°C° 0 mm 7 m/S 738 mmHg 57%
    16:00 +7°C° 0 mm 6 m/S 739 mmHg 59%
    17:00 +6°C° 0 mm 5 m/S 739 mmHg 61%
    18:00 +5°C° 0 mm 5 m/S 739 mmHg 62%
    19:00 +3°C° 0 mm 5 m/S 740 mmHg 64%
    20:00 +3°C° 0 mm 4 m/S 740 mmHg 66%
    21:00 +3°C° 0 mm 4 m/S 740 mmHg 68%
    22:00 +2°C° 0 mm 3 m/S 740 mmHg 70%
    23:00 +1°C° 0 mm 3 m/S 740 mmHg 72%

    26 September, Mittwoch

    Zeit Temperatur Niederschläge Wind Luftdruck Luftfeuchtigkeit
    00:00 +1°C° 0 mm 3 m/S 740 mmHg 77%
    01:00 +2°C° 0 mm 2 m/S 740 mmHg 81%
    02:00 +1°C° 0 mm 2 m/S 741 mmHg 86%
    03:00 +1°C° 0 mm 2 m/S 741 mmHg 88%
    04:00 +2°C° 0 mm 1 m/S 741 mmHg 90%
    05:00 +2°C° 0 mm 1 m/S 741 mmHg 92%
    06:00 +3°C° 0 mm 1 m/S 741 mmHg 86%
    07:00 +4°C° 0 mm 1 m/S 742 mmHg 81%
    08:00 +5°C° 0 mm 1 m/S 742 mmHg 75%
    09:00 +5°C° 0 mm 2 m/S 743 mmHg 67%
    10:00 +7°C° 0 mm 2 m/S 744 mmHg 58%
    11:00 +8°C° 0 mm 2 m/S 744 mmHg 49%
    12:00 +8°C° 0 mm 3 m/S 745 mmHg 47%
    13:00 +9°C° 0 mm 3 m/S 745 mmHg 45%
    14:00 +9°C° 0 mm 3 m/S 746 mmHg 43%
    15:00 +9°C° 0 mm 2 m/S 746 mmHg 48%
    16:00 +8°C° 0 mm 2 m/S 746 mmHg 54%
    17:00 +8°C° 0 mm 1 m/S 747 mmHg 59%
    18:00 +6°C° 0 mm 1 m/S 747 mmHg 62%
    19:00 +5°C° 0 mm 1 m/S 747 mmHg 65%
    20:00 +4°C° 0 mm 1 m/S 748 mmHg 68%
    21:00 +4°C° 0 mm 1 m/S 748 mmHg 72%
    22:00 +3°C° 0 mm 2 m/S 748 mmHg 75%
    23:00 +3°C° 0 mm 2 m/S 748 mmHg 79%

    27 September, Donnerstag

    Zeit Temperatur Niederschläge Wind Luftdruck Luftfeuchtigkeit
    00:00 +4°C° 0 mm 2 m/S 747 mmHg 81%
    01:00 +3°C° 0 mm 3 m/S 747 mmHg 83%
    02:00 +3°C° 0 mm 3 m/S 747 mmHg 86%
    03:00 +4°C° 0 mm 4 m/S 746 mmHg 84%
    04:00 +4°C° 0 mm 4 m/S 745 mmHg 82%
    05:00 +5°C° 0 mm 5 m/S 745 mmHg 80%
    06:00 +5°C° 0.3 mm 5 m/S 744 mmHg 81%
    07:00 +4°C° 0.3 mm 6 m/S 743 mmHg 83%
    08:00 +5°C° 0.3 mm 6 m/S 742 mmHg 84%
    09:00 +5°C° 1.7 mm 7 m/S 742 mmHg 87%
    10:00 +5°C° 1.7 mm 7 m/S 741 mmHg 89%
    11:00 +6°C° 1.7 mm 7 m/S 740 mmHg 91%
    12:00 +6°C° 1.4 mm 7 m/S 740 mmHg 91%
    13:00 +8°C° 1.4 mm 7 m/S 739 mmHg 91%
    14:00 +8°C° 1.4 mm 7 m/S 739 mmHg 91%
    15:00 +8°C° 0.8 mm 7 m/S 738 mmHg 91%
    16:00 +8°C° 0.8 mm 7 m/S 738 mmHg 91%
    17:00 +8°C° 0.8 mm 7 m/S 737 mmHg 92%
    18:00 +8°C° 0.3 mm 7 m/S 737 mmHg 92%
    19:00 +8°C° 0.3 mm 7 m/S 737 mmHg 91%
    20:00 +8°C° 0.3 mm 7 m/S 737 mmHg 91%
    21:00 +8°C° 0.4 mm 6 m/S 737 mmHg 91%
    22:00 +9°C° 0.4 mm 6 m/S 736 mmHg 92%
    23:00 +9°C° 0.4 mm 6 m/S 736 mmHg 92%
    Mehr zeigen